DLH061 EDDL-EDDF

Flight info

Callsign DLH061
Flight time N/A
Altitude 23000
Route COL6T/23L COL T911 ROLIS ROLIS5A
Aircraft CRJ9/M-SDFGIRWY/S

Departure

Time 2026-05-04 19:55
Airport Düsseldorf Airport (EDDL)

Arrival

Time N/A
Airport Frankfurt Main Airport (EDDF)
Time Latitude Longitude Altitude Speed Heading
2026-05-04 18:52 51.27767 6.76247 123 ft 0 kts 162°
2026-05-04 19:25 51.27781 6.76240 122 ft 2 kts 163°
2026-05-04 19:25 51.27797 6.76233 126 ft 2 kts 166°
2026-05-04 19:26 51.27813 6.76227 126 ft 2 kts 171°
2026-05-04 19:26 51.27829 6.76226 124 ft 2 kts 191°
2026-05-04 19:26 51.27840 6.76242 127 ft 2 kts 257°
2026-05-04 19:26 51.27841 6.76249 126 ft 0 kts 265°
2026-05-04 19:27 51.27841 6.76248 126 ft 0 kts 265°
2026-05-04 19:29 51.27841 6.76219 125 ft 7 kts 271°
2026-05-04 19:29 51.27841 6.76188 125 ft 0 kts 271°
2026-05-04 19:30 51.27841 6.76180 125 ft 2 kts 271°
2026-05-04 19:30 51.27842 6.76159 125 ft 2 kts 271°
2026-05-04 19:31 51.27842 6.76144 126 ft 1 kts 271°
2026-05-04 19:31 51.27849 6.76080 124 ft 7 kts 301°
2026-05-04 19:31 51.27872 6.76053 126 ft 0 kts 339°
2026-05-04 19:32 51.27873 6.76052 126 ft 0 kts 342°
2026-05-04 19:33 51.27881 6.76050 125 ft 2 kts 356°
2026-05-04 19:33 51.27913 6.76048 126 ft 6 kts
2026-05-04 19:33 51.27957 6.76049 127 ft 6 kts 360°
2026-05-04 19:33 51.27977 6.76049 126 ft 0 kts 360°
2026-05-04 19:36 51.28012 6.76049 124 ft 7 kts 360°
2026-05-04 19:37 51.28062 6.76048 124 ft 8 kts 358°
2026-05-04 19:37 51.28067 6.76047 124 ft 0 kts 354°
2026-05-04 19:37 51.28106 6.76027 123 ft 9 kts 346°
2026-05-04 19:37 51.28134 6.76036 124 ft 0 kts 44°
2026-05-04 19:38 51.28161 6.76087 121 ft 10 kts 51°
2026-05-04 19:38 51.28203 6.76176 120 ft 10 kts 52°
2026-05-04 19:38 51.28248 6.76268 124 ft 11 kts 53°
2026-05-04 19:39 51.28300 6.76380 119 ft 14 kts 53°
2026-05-04 19:39 51.28358 6.76500 120 ft 13 kts 52°
2026-05-04 19:39 51.28411 6.76613 124 ft 13 kts 51°
2026-05-04 19:39 51.28465 6.76723 125 ft 11 kts 52°
2026-05-04 19:40 51.28493 6.76783 126 ft 9 kts 53°
2026-05-04 19:40 51.28531 6.76862 128 ft 9 kts 52°
2026-05-04 19:40 51.28570 6.76945 128 ft 9 kts 53°
2026-05-04 19:40 51.28628 6.77067 131 ft 19 kts 53°
2026-05-04 19:41 51.28713 6.77245 129 ft 21 kts 52°
2026-05-04 19:41 51.28802 6.77431 128 ft 22 kts 52°
2026-05-04 19:41 51.28876 6.77588 124 ft 14 kts 53°
2026-05-04 19:41 51.28934 6.77708 125 ft 14 kts 52°
2026-05-04 19:42 51.28992 6.77829 129 ft 13 kts 53°
2026-05-04 19:42 51.29043 6.77939 133 ft 12 kts 53°
2026-05-04 19:42 51.29096 6.78049 132 ft 13 kts 52°
2026-05-04 19:42 51.29152 6.78165 133 ft 13 kts 53°
2026-05-04 19:43 51.29208 6.78283 132 ft 14 kts 53°
2026-05-04 19:43 51.29255 6.78384 130 ft 11 kts 52°
2026-05-04 19:43 51.29275 6.78425 131 ft 0 kts 52°
2026-05-04 19:45 51.29305 6.78487 132 ft 13 kts 52°
2026-05-04 19:46 51.29335 6.78543 132 ft 0 kts 38°
2026-05-04 19:49 51.29351 6.78560 131 ft 9 kts 28°
2026-05-04 19:49 51.29374 6.78573 128 ft 0 kts
2026-05-04 19:51 51.29409 6.78573 129 ft 8 kts 354°
2026-05-04 19:51 51.29438 6.78569 131 ft 0 kts 355°
2026-05-04 19:54 51.29441 6.78568 126 ft 4 kts 355°
2026-05-04 19:54 51.29510 6.78532 133 ft 11 kts 309°
2026-05-04 19:54 51.29513 6.78454 131 ft 0 kts 236°
2026-05-04 19:54 51.29512 6.78451 128 ft 1 kts 231°
2026-05-04 19:55 51.29463 6.78349 129 ft 35 kts 232°
2026-05-04 19:55 51.29144 6.77683 131 ft 114 kts 234°
2026-05-04 19:55 51.28538 6.76401 230 ft 166 kts 231°
2026-05-04 19:55 51.27809 6.74836 840 ft 188 kts 231°
2026-05-04 19:56 51.26999 6.73005 1413 ft 219 kts 232°
2026-05-04 19:56 51.25959 6.70925 1799 ft 264 kts 228°
2026-05-04 19:56 51.24676 6.68600 2528 ft 289 kts 227°
2026-05-04 19:56 51.23270 6.66030 2866 ft 332 kts 230°
2026-05-04 19:57 51.21739 6.63299 4366 ft 315 kts 209°
2026-05-04 19:57 51.19515 6.62927 4997 ft 345 kts 172°
2026-05-04 19:57 51.17318 6.63507 6021 ft 298 kts 170°
2026-05-04 19:57 51.15440 6.64172 6446 ft 268 kts 165°
2026-05-04 19:58 51.13587 6.65116 5681 ft 277 kts 145°
2026-05-04 19:58 51.12615 6.67632 5457 ft 280 kts 104°
2026-05-04 19:58 51.12916 6.70698 5473 ft 270 kts 61°
2026-05-04 19:58 51.13747 6.72949 6574 ft 212 kts 73°